星链-34159 (STARLINK-34159)

导读

STARLINK-34159是美国太空探索技术公司(SpaceX)于2025年5月13日发射的星链(Starlink)低轨通信卫星,属于Starlink V1.0平台。该卫星运行在近地轨道,倾角53.16°,近地点约475公里,是星链全球卫星互联网星座的组成部分,旨在为全球尤其是偏远地区提供高速低延迟宽带互联网服务,助力缩小数字鸿沟。

基本信息
目录编号:
63952
目录名称:
STARLINK-34159
国际标识:
2025-099A
轨道中心:
EARTH
卫星名称:
星链-34159
卫星全名:
星链-34159 (STARLINK-34159)
卫星状态:
在轨 (已飞行486 天)
发射日期:
2025-05-13 UTC
国别 :
美国 (US)
星等 :
--
该卫星已列入 空间交会检测服务 Space Conjunction Data Service (SCDS) ,当前飞行风险评估等级: 无高风险
轨道信息
数据来源 国际轨道数据 AOE轨道数据
星历时间 2026-09-11T14:15:35+0800
13小时前
查看轨道信息
2026-09-11T04:00:00+0800
23小时前
查看轨道信息
半长轴 6861.152km 6861.163km
偏心率 0.0001218 0.0000349
轨道倾角 43.001° 43.001°
近地点辐角 281.347° 295.120°
升交点赤经 208.510° 210.924°
平近点角 78.725° 231.278°
近地点 482.179km 482.786km
远地点 483.851km 483.266km
周期 94.266分钟 94.266分钟
每日圈数 15.275914 15.275879
详细信息
固有亮度:
5
最大亮度:
2.5
卫星平台:
Starlink V1.0
覆盖范围:
全球
运营商:
太空探索技术公司
运营商所在国:
美国
制造商(研发单位):
太空探索技术公司
制造商所在国:
美国
使用方式:
暂无
卫星简介
Starlink 计划是 SpaceX 推出的全球卫星互联网项目,通过发射低轨道卫星,为全球尤其是偏远地区提供高速、低延迟的互联网服务。自 2019 年起,Starlink 已部署数千颗卫星,旨在缩小全球数字鸿沟,推动互联网普及。该项目还为军事、航空等行业提供通信支持,带来广泛经济效益。
2D轨道图
3D轨道图
轨道高度分析图
轨道倾角分析图
轨道综合分析图
查看轨道综合分析图
交会数据列表
事件ID 空间交会对象 最接近时刻(TCA) 交会距离 交会风险概率(CRP) 交会风险指数(CRI) 操作
CDM_260912-042006-395206-703722
2026-09-12T
04:20:57+0000
0.746 km
远距离
5.32547E-5 中风险 0.7
CDM_260912-235706-395206-703721
2026-09-12T
23:57:51+0000
1.223 km
极远距离
1.001096E-5 中风险 0.55
CDM_260912-055506-395206-703722
2026-09-12T
05:55:06+0000
1.275 km
极远距离
8.697982E-6 低风险 0.54
CDM_260912-222306-395206-703721
2026-09-12T
22:23:41+0000
1.767 km
极远距离
3.058286E-6 低风险 0.45
CDM_260912-024606-395206-703722
2026-09-12T
02:46:48+0000
2.485 km
极远距离
1.384245E-6 低风险 0.38
CDM_260913-013206-395206-703721
2026-09-13T
01:32:00+0000
2.801 km
极远距离
1.149349E-6 低风险 0.36
与全量物体交会距离演化趋势
与全量物体交会风险概率演化趋势